Location: Holyhead Bay
(53.3667°N, 4.6667°W)
Time: 18:36:38
(UTC+00:00)

COSMO-SKYMED 1 - Pass Details

Date: 24 November 2020
Orbit: 621 x 623 km, 97.9° (Epoch: 17 January)

Event Time Altitude Azimuth Distance (km) Brightness Sun altitude
Exits shadow 18:28:34 35° 33° (NNE) 1,008 3.3 -19.9°
Maximum altitude 18:30:14 64° 102° (ESE) 696 2.5 -20.1°
Drops below altitude 10° 18:34:33 10° 184° (S) 1,993 5.3 -20.8°
Sets 18:36:45 0° 188° (S) 2,894 6.2 -21.1°
